Pellston, MI

5:47 PM EDT on May 26, 2018 (GMT -0400)
Pellston Regional Airport Of Emmet County

Weather History for KPLN - April, 2013

Change the Weather History Date:

Thursday, April 11, 2013

  Actual Average Record
Temperature  
Mean Temperature 31 °F -  
Max Temperature 35 °F 47 °F 77 °F (2006)
Min Temperature 28 °F 25 °F 7 °F (1973)
Degree Days  
Heating Degree Days 34    
Moisture  
Dew Point 21 °F    
Average Humidity 69    
Maximum Humidity 86    
Minimum Humidity 54    
Precipitation  
Precipitation 0.09 in - - ()
Sea Level Pressure  
Sea Level Pressure 30.03 in    
Wind  
Wind Speed 17 mph (East)    
Max Wind Speed 26 mph    
Max Gust Speed 38 mph    
Visibility 7 miles    
Events Snow    
Averages and records for this station are not official NWS values.
T = Trace of Precipitation, MM = Missing Value Source: NWS Daily Summary

Daily Weather History Graph

Daily Weather History Graph

Search for Another Location

Airport or City:

Astronomy

Apr. 11, 2013 Rise Set
Actual Time 7:00 AM EDT 8:20 PM EDT
Civil Twilight 6:29 AM EDT 8:51 PM EDT
Nautical Twilight 5:52 AM EDT 9:28 PM EDT
Astronomical Twilight 5:13 AM EDT 10:08 PM EDT
Moon 7:27 AM EDT (4/11) 10:00 PM EDT (4/11)
Length of Visible Light 14h 21m
Length of Day
13h 20m
New Moon, 2% of the Moon is Illuminated
Apr 11
New Moon
Apr 18
First Quarter
Apr 25
Full
May 2
Last Quarter
May 9
New

Hourly Weather History & Observations

Time (EDT) Temp. Windchill Dew Point Humidity Pressure Visibility Wind Dir Wind Speed Gust Speed Precip Events Conditions
12:54 AM 32.0 °F 25.6 °F 23.0 °F 69% 30.13 in 10.0 mi NE 6.9 mph - N/A   Clear
1:54 AM 34.0 °F 26.6 °F 23.0 °F 64% 30.14 in 10.0 mi ENE 9.2 mph - N/A   Clear
2:54 AM 34.0 °F 22.7 °F 23.0 °F 64% 30.11 in 10.0 mi ENE 19.6 mph 26.5 mph N/A   Clear
3:54 AM 33.1 °F 21.9 °F 21.0 °F 61% 30.10 in 10.0 mi ENE 18.4 mph 31.1 mph N/A   Clear
4:54 AM 32.0 °F 22.5 °F 19.9 °F 61% 30.13 in 10.0 mi East 12.7 mph - N/A   Clear
5:54 AM 30.9 °F 21.2 °F 19.9 °F 64% 30.14 in 10.0 mi East 12.7 mph - N/A   Clear
6:54 AM 30.0 °F 16.9 °F 19.0 °F 64% 30.12 in 10.0 mi East 21.9 mph 27.6 mph N/A   Clear
7:54 AM 30.0 °F 16.9 °F 18.0 °F 61% 30.10 in 10.0 mi East 21.9 mph 32.2 mph N/A   Clear
8:54 AM 30.0 °F 21.1 °F 17.1 °F 59% 30.19 in 10.0 mi ENE 10.4 mph 18.4 mph N/A   Partly Cloudy
9:54 AM 30.0 °F 17.9 °F 16.0 °F 56% 30.14 in 10.0 mi East 18.4 mph 27.6 mph N/A   Scattered Clouds
10:54 AM 28.9 °F 15.1 °F 16.0 °F 58% 30.09 in 10.0 mi East 23.0 mph 35.7 mph N/A   Overcast
11:54 AM 30.0 °F 17.2 °F 16.0 °F 56% 30.12 in 10.0 mi East 20.7 mph 27.6 mph N/A   Mostly Cloudy
1:54 PM 30.9 °F 18.4 °F 17.1 °F 57% 30.07 in 10.0 mi East 20.7 mph 34.5 mph N/A   Overcast
2:54 PM 30.9 °F 17.5 °F 17.1 °F 57% 30.06 in 10.0 mi East 24.2 mph 32.2 mph N/A   Overcast
3:54 PM 30.9 °F 16.9 °F 16.0 °F 54% 30.04 in 10.0 mi East 26.5 mph 38.0 mph N/A   Overcast
4:54 PM 30.9 °F 17.8 °F 16.0 °F 54% 30.01 in 10.0 mi East 23.0 mph 34.5 mph 0.00 in   Overcast
5:54 PM 30.9 °F 18.1 °F 17.1 °F 57% 30.03 in 10.0 mi East 21.9 mph 29.9 mph 0.00 in   Overcast
6:54 PM 30.9 °F 18.1 °F 17.1 °F 57% 30.01 in 10.0 mi East 21.9 mph 32.2 mph N/A   Overcast
7:54 PM 30.0 °F 16.9 °F 21.0 °F 69% 29.99 in 4.0 mi East 21.9 mph 29.9 mph 0.00 in Snow Light Snow
8:54 PM 30.0 °F 16.9 °F 21.9 °F 72% 29.97 in 3.0 mi East 21.9 mph 35.7 mph 0.00 in Snow Light Snow
9:05 PM 30.2 °F 17.1 °F 23.0 °F 75% 29.94 in 2.0 mi East 21.9 mph 32.2 mph 0.01 in Snow Light Snow
9:17 PM 28.4 °F 14.1 °F 23.0 °F 80% 29.92 in 2.0 mi East 24.2 mph 33.4 mph 0.01 in Snow Light Snow
9:43 PM 28.4 °F 15.8 °F 24.8 °F 86% 29.92 in 1.5 mi East 18.4 mph 28.8 mph 0.02 in Snow Light Snow
9:54 PM 28.9 °F 16.5 °F 25.0 °F 85% 29.96 in 1.5 mi East 18.4 mph 25.3 mph 0.03 in Snow Light Snow
9:58 PM 28.4 °F 15.4 °F 24.8 °F 86% 29.93 in 2.0 mi East 19.6 mph 25.3 mph 0.00 in Snow Light Snow
10:10 PM 28.4 °F 14.7 °F 24.8 °F 86% 29.92 in 1.5 mi East 21.9 mph 32.2 mph 0.01 in Snow Light Snow
10:34 PM 28.4 °F 14.7 °F 24.8 °F 86% 29.91 in 2.0 mi East 21.9 mph 29.9 mph 0.02 in Snow Light Snow
10:39 PM 28.4 °F 15.8 °F 24.8 °F 86% 29.91 in 3.0 mi East 18.4 mph 29.9 mph 0.02 in Snow Light Snow
10:54 PM 28.9 °F 15.4 °F 24.1 °F 82% 29.94 in 6.0 mi East 21.9 mph 32.2 mph 0.03 in   Overcast
11:41 PM 28.4 °F 14.4 °F 24.8 °F 86% 29.89 in 1.8 mi ENE 23.0 mph 33.4 mph 0.02 in Snow Light Snow
11:54 PM 28.9 °F 16.9 °F 24.1 °F 82% 29.91 in 1.5 mi East 17.3 mph 31.1 mph 0.03 in Snow Light Snow